Miscellaneous Local Product
Issued by NWS Hastings, NE

Home | Current Version | Previous Version | Graphics & Text | Print | Product List | Glossary On
Versions: 1 2 3 4 5 6 7 8 9 10 11 12 13 14 15 16 17 18 19 20 21 22 23 24 25 26 27 28 29 30 31 32 33 34 35 36 37 38 39 40 41 42 43 44 45 46 47 48 49 50
000
AXUS43 KGID 261002
MISGRI

GID CWA HOURLY WEATHER ROUNDUP
NATIONAL WEATHER SERVICE HASTINGS NE
500 AM CDT THU MAY 26 2016

NOTE: "FAIR" INDICATES FEW OR NO CLOUDS BELOW 12,000 FEET WITH NO
SIGNIFICANT WEATHER AND/OR OBSTRUCTIONS TO VISIBILITY.

...SOUTH CENTRAL NEBRASKA...

CITY           SKY/WX    TMP DP  RH WIND       PRES   REMARKS
GRAND ISLAND   CLEAR     56  53  90 S5        29.88R
HASTINGS       CLEAR     56  52  86 CALM      29.87S
KEARNEY        CLEAR     54  50  87 CALM      29.89R
ORD            PTCLDY    53  51  93 S7        29.85R
YORK           CLEAR     55  54  94 SE3       29.86S
AURORA         CLEAR     56  54  91 S5        29.86S
LEXINGTON      CLEAR     51  49  92 CALM      29.89S
HOLDREGE       CLEAR     53  50  89 CALM      29.89R
HEBRON         CLEAR     55  53  95 NW3       29.86R

...NEBRASKA PANHANDLE...

CITY           SKY/WX    TMP DP  RH WIND       PRES   REMARKS
CHADRON        CLEAR     41  39  93 SW6       29.91R
ALLIANCE       CLOUDY    41  39  93 NW6       29.92F
SCOTTSBLUFF    CLEAR     45  40  82 N9        29.95R
SIDNEY         PTCLDY    47  43  86 W9        29.95R

...WESTERN AND NORTH CENTRAL NEBRASKA...

CITY           SKY/WX    TMP DP  RH WIND       PRES   REMARKS
VALENTINE      PTCLDY    48  45  89 W3        29.89S
AINSWORTH      CLOUDY    52  47  84 NW3       29.88F
ONEILL         CLEAR     54  50  85 NW6       29.84F
BROKEN BOW     CLOUDY    54  51  90 CALM      29.88R
IMPERIAL       MOCLDY    51  48  89 MISG      29.91F
NORTH PLATTE   MOCLDY    51  50  96 CALM      29.91R
MCCOOK         CLEAR     49  47  93 SW3       29.89S

...EASTERN NEBRASKA...

CITY           SKY/WX    TMP DP  RH WIND       PRES   REMARKS
NORFOLK        CLEAR     53  51  93 CALM      29.84F
SO SIOUX CITY  FOG       56  54  93 CALM      29.85R VSB 1/2
TEKAMAH        CLEAR     57  54  89 S5        29.85F
COLUMBUS       CLEAR     57  48  72 E3        29.85S
ALBION         CLEAR     53  50  89 S3        29.84R
OMAHA EPPLEY   CLEAR     62  56  80 CALM      29.84F
OFFUTT AFB     CLEAR     61  58  89 SE6       29.85F
MILLARD        CLEAR     61  57  86 CALM      29.85S
LINCOLN        CLEAR     59  55  87 CALM      29.88R
NEBRASKA CITY  CLEAR     63  63 100 NE8       29.87R
BEATRICE       CLEAR     59  55  85 NE7       29.86R
FALLS CITY     CLOUDY    63  61  93 N5        29.85R

...NORTHERN KANSAS...

CITY           SKY/WX    TMP DP  RH WIND       PRES   REMARKS
GOODLAND       CLOUDY    54  50  86 SW6       29.94R
HILL CITY      CLEAR     51  49  92 N6        29.86S
NORTON         SUNNY     52  46  82 W5        29.87S
PHILLIPSBURG   CLEAR     52  52 100 N14       29.88R
SMITH CENTER   CLEAR     52  50  93 N8        29.87R
BELOIT         CLEAR     55  54  94 CALM      29.81F
HAYS           CLOUDY    52  48  87 CALM      29.83S
RUSSELL        CLEAR     58  55  90 NE9       29.82S
CONCORDIA      CLEAR     57  53  86 SE6       29.82F
SALINA         CLEAR     66  61  84 E3        29.82F
TOPEKA         CLOUDY    68  64  87 E8        29.87R



USA.gov is the U.S. government's official web portal to all federal, state and local government web resources and services.